カタログに戻る

TITAN 3C TRANSTAGE DEB

LostHEO
NORAD 20672·DEBRIS·🇺🇸 United States

打ち上げ Dec 21, 1965 から Cape Canaveral Space Force Station

Loading…

次のパス (今後24時間)

TLE

古いSource: Space-Track

元期: Feb 7, 2026, 01:35 UTC

1 20672U 65108AD  26038.06621243  .00000070  00000-0  11042-2 0  9997
2 20672  26.8274 265.2867 6814740 219.7757 351.4547  2.70049655 44007

AllMySatでTITAN 3C TRANSTAGE DEBをリアルタイム追跡

Download on the App Store